TimeGMT,TemperatureF,Dew PointF,Humidity,Sea Level PressureIn,VisibilityMPH,Wind Direction,Wind SpeedMPH,Gust SpeedMPH,PrecipitationIn,Events,Conditions,WindDirDegrees,DateUTC
12:00 AM,40,33,67,30.06,10,SSE,6.7,,,,Mostly Cloudy,150,2013-03-04 00:00:00
12:00 AM,41.0,33.8,76,30.04,6.2,SSE,6.9,-,N/A,,Mostly Cloudy,150,2013-03-04 00:00:00
12:30 AM,39.2,33.8,81,30.04,6.2,SSE,5.8,-,N/A,,Mostly Cloudy,160,2013-03-04 00:30:00
1:00 AM,39.2,32.0,75,30.04,6.2,SSE,8.1,-,N/A,,Mostly Cloudy,150,2013-03-04 01:00:00
1:30 AM,39.2,32.0,75,30.01,6.2,SSE,9.2,-,N/A,,Mostly Cloudy,160,2013-03-04 01:30:00
2:00 AM,39.2,32.0,75,30.01,6.2,SSE,9.2,-,N/A,,Mostly Cloudy,160,2013-03-04 02:00:00
2:30 AM,39.2,32.0,75,30.01,6.2,SSE,9.2,-,N/A,,Mostly Cloudy,150,2013-03-04 02:30:00
3:00 AM,39.2,33.8,81,29.98,6.2,SE,8.1,-,N/A,,Mostly Cloudy,130,2013-03-04 03:00:00
3:30 AM,39.2,32.0,75,29.98,6.2,SE,11.5,-,N/A,,Mostly Cloudy,140,2013-03-04 03:30:00
4:00 AM,41.0,33.8,76,29.95,6.2,SE,10.4,-,N/A,,Mostly Cloudy,140,2013-03-04 04:00:00
4:30 AM,41.0,33.8,76,29.95,6.2,SE,8.1,-,N/A,,Mostly Cloudy,140,2013-03-04 04:30:00
5:00 AM,41.0,33.8,76,29.95,6.2,SE,8.1,-,N/A,,Mostly Cloudy,140,2013-03-04 05:00:00
5:30 AM,41.0,33.8,76,29.95,6.2,SE,11.5,-,N/A,,Mostly Cloudy,130,2013-03-04 05:30:00
6:00 AM,41,32,60,29.95,12,SE,13.4,,,,Mostly Cloudy,140,2013-03-04 06:00:00
6:00 AM,41.0,32.0,70,29.92,6.2,SE,11.5,-,N/A,,Mostly Cloudy,130,2013-03-04 06:00:00
6:30 AM,41.0,32.0,70,29.92,6.2,SE,12.7,-,N/A,,Mostly Cloudy,130,2013-03-04 06:30:00
7:00 AM,41.0,33.8,76,29.92,6.2,ESE,13.8,-,N/A,,Mostly Cloudy,120,2013-03-04 07:00:00
7:30 AM,41.0,33.8,76,29.92,6.2,SE,11.5,-,N/A,,Mostly Cloudy,130,2013-03-04 07:30:00
8:00 AM,41.0,33.8,76,29.92,6.2,SE,10.4,-,N/A,,Mostly Cloudy,130,2013-03-04 08:00:00
8:30 AM,41.0,33.8,76,29.92,6.2,SE,12.7,-,N/A,,Mostly Cloudy,130,2013-03-04 08:30:00
9:00 AM,41.0,33.8,76,29.89,6.2,SE,10.4,-,N/A,,Mostly Cloudy,140,2013-03-04 09:00:00
9:30 AM,41.0,33.8,76,29.89,6.2,SE,10.4,-,N/A,,Mostly Cloudy,140,2013-03-04 09:30:00
10:00 AM,41.0,33.8,76,29.89,6.2,SE,11.5,-,N/A,,Mostly Cloudy,140,2013-03-04 10:00:00
10:30 AM,41.0,32.0,70,29.89,6.2,SSE,12.7,-,N/A,,Mostly Cloudy,150,2013-03-04 10:30:00
11:00 AM,41.0,32.0,70,29.89,6.2,SSE,10.4,-,N/A,,Mostly Cloudy,160,2013-03-04 11:00:00
11:30 AM,44.6,32.0,61,29.86,6.2,SE,13.8,-,N/A,,Mostly Cloudy,130,2013-03-04 11:30:00
12:00 PM,44,33,54,29.88,16,SE,11.2,,,,Partly Cloudy,140,2013-03-04 12:00:00
12:00 PM,44.6,33.8,66,29.86,6.2,SE,12.7,-,N/A,,Mostly Cloudy,130,2013-03-04 12:00:00
12:30 PM,44.6,32.0,61,29.86,6.2,SE,12.7,-,N/A,,Mostly Cloudy,130,2013-03-04 12:30:00
1:00 PM,44.6,32.0,61,29.83,6.2,SSE,10.4,-,N/A,,Mostly Cloudy,160,2013-03-04 13:00:00
1:30 PM,44.6,33.8,66,29.83,6.2,SE,10.4,-,N/A,,Mostly Cloudy,140,2013-03-04 13:30:00
2:00 PM,42.8,33.8,70,29.80,6.2,SE,8.1,-,N/A,,Mostly Cloudy,140,2013-03-04 14:00:00
2:30 PM,42.8,33.8,70,29.80,6.2,SE,10.4,-,N/A,,Mostly Cloudy,140,2013-03-04 14:30:00
3:00 PM,42.8,33.8,70,29.80,6.2,SE,10.4,-,N/A,,Mostly Cloudy,140,2013-03-04 15:00:00
3:30 PM,42.8,33.8,70,29.77,6.2,SE,11.5,-,N/A,,Mostly Cloudy,130,2013-03-04 15:30:00
4:00 PM,41.0,33.8,76,29.77,6.2,SE,11.5,-,N/A,,Mostly Cloudy,130,2013-03-04 16:00:00
4:30 PM,41.0,33.8,76,29.77,6.2,SE,9.2,-,N/A,,Mostly Cloudy,130,2013-03-04 16:30:00
5:00 PM,41.0,33.8,76,29.77,6.2,SE,8.1,-,N/A,,Mostly Cloudy,130,2013-03-04 17:00:00
5:30 PM,41.0,33.8,76,29.77,6.2,SE,6.9,-,N/A,,Mostly Cloudy,130,2013-03-04 17:30:00
6:00 PM,41,34,66,29.79,5,SE,6.7,,,,Mist,130,2013-03-04 18:00:00
6:00 PM,41.0,33.8,76,29.77,5.0,SE,5.8,-,N/A,,Mostly Cloudy,130,2013-03-04 18:00:00
6:30 PM,39.2,33.8,81,29.77,5.0,SE,5.8,-,N/A,,Mostly Cloudy,130,2013-03-04 18:30:00
7:00 PM,39.2,33.8,81,29.77,5.0,SSE,6.9,-,N/A,,Mostly Cloudy,150,2013-03-04 19:00:00
7:30 PM,37.4,33.8,87,29.77,6.2,SSE,4.6,-,N/A,,Scattered Clouds,150,2013-03-04 19:30:00
8:00 PM,35.6,32.0,87,29.77,5.6,ESE,3.5,-,N/A,,Scattered Clouds,120,2013-03-04 20:00:00
8:30 PM,33.8,30.2,87,29.74,5.6,ESE,4.6,-,N/A,,Scattered Clouds,110,2013-03-04 20:30:00
9:00 PM,32.0,30.2,93,29.74,5.6,ESE,4.6,-,N/A,,Scattered Clouds,110,2013-03-04 21:00:00
9:30 PM,32.0,30.2,93,29.74,5.6,ESE,4.6,-,N/A,,Scattered Clouds,120,2013-03-04 21:30:00
10:00 PM,32.0,30.2,93,29.74,5.0,ESE,5.8,-,N/A,,Partly Cloudy,110,2013-03-04 22:00:00
10:30 PM,32.0,30.2,93,29.74,5.0,ESE,6.9,-,N/A,,Partly Cloudy,110,2013-03-04 22:30:00
11:00 PM,32.0,30.2,93,29.71,5.0,ESE,5.8,-,N/A,,Partly Cloudy,110,2013-03-04 23:00:00
11:30 PM,30.2,30.2,100,29.71,5.0,ESE,5.8,-,N/A,,Partly Cloudy,110,2013-03-04 23:30:00